This is the latest recevied weather packets stored in our database for station/object DG8SBT-13. If no packets are shown the sender has not sent any weather packets the latest 10 day(s).
| Time | Temp. | Humidity | Pressure | Rain* | Wind** | Luminosity | Snow |
|---|---|---|---|---|---|---|---|
| 1777481112 | 25° C | 20% | 1022.4 hPa | - | - | - | - |
| 1777477531 | 25.56° C | 20% | 1022.1 hPa | - | - | - | - |
| 1777475742 | 25.56° C | 21% | 1022 hPa | - | - | - | - |
| 1777473952 | 26.11° C | 21% | 1022 hPa | - | - | - | - |
| 1777472162 | 26.67° C | 23% | 1021.9 hPa | - | - | - | - |
| 1777470372 | 26.11° C | 23% | 1022 hPa | - | - | - | - |
| 1777468583 | 26.11° C | 23% | 1022 hPa | - | - | - | - |
| 1777466789 | 25.56° C | 24% | 1022 hPa | - | - | - | - |
| 1777464996 | 25° C | 22% | 1022 hPa | - | - | - | - |
| 1777463205 | 25° C | 23% | 1022.1 hPa | - | - | - | - |
| 1777461414 | 25° C | 23% | 1022.2 hPa | - | - | - | - |
| 1777459623 | 24.44° C | 24% | 1022.2 hPa | - | - | - | - |
| 1777457832 | 24.44° C | 27% | 1022.3 hPa | - | - | - | - |
| 1777456041 | 23.89° C | 27% | 1022.2 hPa | - | - | - | - |
| 1777454251 | 23.33° C | 29% | 1022.3 hPa | - | - | - | - |
| 1777452460 | 22.78° C | 28% | 1022.3 hPa | - | - | - | - |
| 1777450669 | 22.78° C | 29% | 1022.4 hPa | - | - | - | - |
| 1777448879 | 22.22° C | 28% | 1022.4 hPa | - | - | - | - |
| 1777447088 | 21.67° C | 29% | 1022.4 hPa | - | - | - | - |
| 1777445297 | 21.11° C | 29% | 1022.4 hPa | - | - | - | - |
| 1777443506 | 21.11° C | 30% | 1022.3 hPa | - | - | - | - |
| 1777441717 | 20.56° C | 31% | 1022.2 hPa | - | - | - | - |
| 1777439926 | 20.56° C | 30% | 1021.9 hPa | - | - | - | - |
| 1777438138 | 20.56° C | 29% | 1021.5 hPa | - | - | - | - |
| 1777436347 | 20.56° C | 29% | 1021.2 hPa | - | - | - | - |
* Rain since midnight (hover to see other rain measurements)
** Current wind speed in m/s (hover to see current wind gust speed)